Location: Amberg
(48.0613°N, 10.6820°E)
Time: 00:00:27
(UTC+00:00)

Cosmos 1634 Rocket - Pass Details

Date: 18 November 2025
Orbit: 958 x 992 km, 82.9° (Epoch: 05 December)

Event Time Altitude Azimuth Distance (km) Brightness Sun altitude
Rises 17:41:50 0° 164° (SSE) 3,679 6.9 -20.8°
Reaches altitude 10° 17:44:28 10° 158° (SSE) 2,731 6.2 -21.2°
Enters shadow 17:50:03 43° 95° (E) 1,356 4.3 -22.1°
Exits shadow 17:57:50 - 16° (NNE) 3,344 6.6 -23.4°
Sets 17:58:43 0° 15° (NNE) 3,673 6.8 -23.6°
